Orr, MN

1:57 PM CDT on May 23, 2018 (GMT -0500)
Orr Regional

Weather History for KORB - January, 2014

Change the Weather History Date:

Sunday, January 12, 2014

  Actual Average Record
Temperature  
Mean Temperature 27 °F -  
Max Temperature 35 °F 13 °F 37 °F (2006)
Min Temperature 19 °F -1 °F -29 °F (1999)
Degree Days  
Heating Degree Days 38    
Moisture  
Dew Point 23 °F    
Average Humidity 83    
Maximum Humidity 93    
Minimum Humidity 70    
Precipitation  
Precipitation 0.00 in - - ()
Sea Level Pressure  
Sea Level Pressure 29.29 in    
Wind  
Wind Speed 6 mph (South)    
Max Wind Speed 14 mph    
Max Gust Speed 18 mph    
Visibility 10 miles    
Events      
Averages and records for this station are not official NWS values.
T = Trace of Precipitation, MM = Missing Value Source: NWS Daily Summary

Daily Weather History Graph

Daily Weather History Graph

Search for Another Location

Airport or City:

Astronomy

Jan. 12, 2014 Rise Set
Actual Time 7:58 AM CST 4:41 PM CST
Civil Twilight 7:22 AM CST 5:17 PM CST
Nautical Twilight 6:44 AM CST 5:56 PM CST
Astronomical Twilight 6:06 AM CST 6:33 PM CST
Moon 2:11 PM CST (1/12) 4:55 AM CST (1/12)
Length of Visible Light 9h 54m
Length of Day
8h 43m
Waxing Gibbous, 90% of the Moon is Illuminated
Jan 12
Waxing Gibbous
Jan 15
Full
Jan 23
Last Quarter
Jan 30
New
Feb 6
First Quarter

Hourly Weather History & Observations

Time (CST) Temp. Windchill Dew Point Humidity Pressure Visibility Wind Dir Wind Speed Gust Speed Precip Events Conditions
12:13 AM 19.4 °F - 17.6 °F 93% 29.46 in 10.0 mi Calm Calm - N/A   Overcast
12:33 AM 19.4 °F - 17.6 °F 93% 29.43 in 10.0 mi Calm Calm - N/A   Overcast
12:53 AM 21.2 °F - 17.6 °F 86% 29.44 in 10.0 mi Calm Calm - N/A   Overcast
1:13 AM 21.2 °F 16.4 °F 17.6 °F 86% 29.43 in 10.0 mi SE 3.5 mph - N/A   Overcast
1:33 AM 21.2 °F 14.9 °F 19.4 °F 93% 29.42 in 10.0 mi SSE 4.6 mph - N/A   Overcast
1:53 AM 21.2 °F 16.4 °F 19.4 °F 93% 29.43 in 10.0 mi SE 3.5 mph - N/A   Overcast
2:13 AM 21.2 °F 13.6 °F 19.4 °F 93% 29.42 in 10.0 mi SE 5.8 mph - N/A   Overcast
2:33 AM 21.2 °F 13.6 °F 19.4 °F 93% 29.42 in 10.0 mi SE 5.8 mph - N/A   Overcast
2:53 AM 21.2 °F 13.6 °F 19.4 °F 93% 29.41 in 10.0 mi SSE 5.8 mph - N/A   Overcast
3:13 AM 21.2 °F 14.9 °F 19.4 °F 93% 29.40 in 10.0 mi SSE 4.6 mph - N/A   Overcast
3:33 AM 23.0 °F 14.7 °F 19.4 °F 86% 29.39 in 10.0 mi SSE 6.9 mph - N/A   Overcast
3:53 AM 23.0 °F 15.8 °F 19.4 °F 86% 29.38 in 10.0 mi SSE 5.8 mph - N/A   Overcast
4:13 AM 23.0 °F 15.8 °F 19.4 °F 86% 29.36 in 10.0 mi SE 5.8 mph - N/A   Overcast
4:33 AM 23.0 °F 13.9 °F 19.4 °F 86% 29.32 in 10.0 mi SE 8.1 mph - N/A   Overcast
4:53 AM 23.0 °F 12.4 °F 19.4 °F 86% 29.31 in 10.0 mi SSE 10.4 mph - N/A   Mostly Cloudy
5:13 AM 23.0 °F 13.1 °F 19.4 °F 86% 29.31 in 10.0 mi SSE 9.2 mph 17.3 mph N/A   Mostly Cloudy
5:33 AM 23.0 °F 12.4 °F 19.4 °F 86% 29.28 in 10.0 mi SSE 10.4 mph 18.4 mph N/A   Overcast
5:53 AM 23.0 °F 11.1 °F 19.4 °F 86% 29.26 in 10.0 mi SSE 12.7 mph 17.3 mph N/A   Overcast
6:13 AM 24.8 °F 13.4 °F 19.4 °F 80% 29.24 in 10.0 mi SSE 12.7 mph - N/A   Overcast
6:33 AM 24.8 °F 13.4 °F 19.4 °F 80% 29.23 in 10.0 mi SSE 12.7 mph 18.4 mph N/A   Scattered Clouds
6:53 AM 24.8 °F 12.9 °F 19.4 °F 80% 29.22 in 10.0 mi SSE 13.8 mph 18.4 mph N/A   Clear
7:13 AM 24.8 °F 14.0 °F 19.4 °F 80% 29.21 in 10.0 mi SSE 11.5 mph 18.4 mph N/A   Scattered Clouds
7:33 AM 26.6 °F 17.5 °F 19.4 °F 74% 29.23 in 10.0 mi SSE 9.2 mph - N/A   Overcast
7:53 AM 26.6 °F 19.1 °F 19.4 °F 74% 29.23 in 10.0 mi SSE 6.9 mph - N/A   Overcast
8:13 AM 26.6 °F 16.8 °F 19.4 °F 74% 29.24 in 10.0 mi South 10.4 mph - N/A   Overcast
8:33 AM 26.6 °F 16.2 °F 21.2 °F 80% 29.24 in 7.0 mi South 11.5 mph - N/A   Overcast
8:53 AM 26.6 °F 15.7 °F 21.2 °F 80% 29.24 in 7.0 mi South 12.7 mph 17.3 mph N/A   Overcast
9:13 AM 26.6 °F 16.2 °F 23.0 °F 86% 29.24 in 10.0 mi South 11.5 mph 16.1 mph N/A   Overcast
9:33 AM 26.6 °F 16.2 °F 23.0 °F 86% 29.24 in 10.0 mi South 11.5 mph - N/A   Overcast
9:53 AM 26.6 °F 17.5 °F 23.0 °F 86% 29.23 in 10.0 mi SSE 9.2 mph - N/A   Overcast
10:13 AM 26.6 °F 18.2 °F 23.0 °F 86% 29.23 in 10.0 mi South 8.1 mph - N/A   Overcast
10:33 AM 26.6 °F 20.0 °F 23.0 °F 86% 29.23 in 10.0 mi South 5.8 mph - N/A   Mostly Cloudy
10:53 AM 26.6 °F 17.5 °F 23.0 °F 86% 29.22 in 10.0 mi South 9.2 mph - N/A   Mostly Cloudy
11:13 AM 28.4 °F 20.4 °F 24.8 °F 86% 29.22 in 10.0 mi South 8.1 mph - N/A   Scattered Clouds
11:33 AM 30.2 °F 21.3 °F 24.8 °F 80% 29.22 in 10.0 mi South 10.4 mph 16.1 mph N/A   Scattered Clouds
11:53 AM 30.2 °F 22.6 °F 24.8 °F 80% 29.21 in 10.0 mi South 8.1 mph 17.3 mph N/A   Mostly Cloudy
12:13 PM 30.2 °F 21.9 °F 24.8 °F 80% 29.20 in 10.0 mi South 9.2 mph - N/A   Mostly Cloudy
12:33 PM 30.2 °F 21.9 °F 26.6 °F 86% 29.21 in 10.0 mi SSW 9.2 mph - N/A   Mostly Cloudy
12:53 PM 32.0 °F 25.6 °F 26.6 °F 80% 29.19 in 10.0 mi South 6.9 mph - N/A   Scattered Clouds
1:13 PM 32.0 °F 25.6 °F 26.6 °F 80% 29.20 in 10.0 mi SSW 6.9 mph - N/A   Clear
1:33 PM 32.0 °F 25.6 °F 26.6 °F 80% 29.19 in 10.0 mi South 6.9 mph - N/A   Scattered Clouds
1:53 PM 33.8 °F 27.0 °F 26.6 °F 75% 29.20 in 10.0 mi SW 8.1 mph - N/A   Mostly Cloudy
2:13 PM 35.6 °F 28.6 °F 26.6 °F 70% 29.21 in 10.0 mi SW 9.2 mph - N/A   Scattered Clouds
2:33 PM 33.8 °F 28.6 °F 26.6 °F 75% 29.21 in 10.0 mi SSW 5.8 mph - N/A   Clear
2:53 PM 33.8 °F 28.6 °F 26.6 °F 75% 29.21 in 10.0 mi South 5.8 mph - N/A   Clear
3:13 PM 35.6 °F 31.7 °F 26.6 °F 70% 29.22 in 10.0 mi SSW 4.6 mph - N/A   Clear
3:33 PM 35.6 °F 31.7 °F 26.6 °F 70% 29.23 in 10.0 mi SSW 4.6 mph - N/A   Clear
3:53 PM 35.6 °F 32.8 °F 26.6 °F 70% 29.23 in 10.0 mi South 3.5 mph - N/A   Clear
4:13 PM 33.8 °F 30.8 °F 26.6 °F 75% 29.24 in 10.0 mi South 3.5 mph - N/A   Clear
4:33 PM 30.2 °F 26.7 °F 26.6 °F 86% 29.26 in 10.0 mi South 3.5 mph - N/A   Scattered Clouds
4:53 PM 30.2 °F 26.7 °F 26.6 °F 86% 29.27 in 10.0 mi South 3.5 mph - N/A   Overcast
5:13 PM 33.8 °F 29.6 °F 26.6 °F 75% 29.28 in 10.0 mi South 4.6 mph - N/A   Overcast
5:33 PM 33.8 °F 30.8 °F 26.6 °F 75% 29.28 in 10.0 mi SW 3.5 mph - N/A   Overcast
5:53 PM 32.0 °F 28.7 °F 26.6 °F 80% 29.28 in 10.0 mi SW 3.5 mph - N/A   Scattered Clouds
6:13 PM 30.2 °F - 26.6 °F 86% 29.29 in 10.0 mi Calm Calm - N/A   Clear
6:33 PM 30.2 °F - 24.8 °F 80% 29.30 in 10.0 mi Calm Calm - N/A   Clear
6:53 PM 28.4 °F - 24.8 °F 86% 29.31 in 10.0 mi Calm Calm - N/A   Clear
7:13 PM 28.4 °F - 24.8 °F 86% 29.31 in 10.0 mi Calm Calm - N/A   Clear
7:33 PM 28.4 °F 24.6 °F 24.8 °F 86% 29.32 in 10.0 mi SW 3.5 mph - N/A   Clear
7:53 PM 28.4 °F - 24.8 °F 86% 29.32 in 10.0 mi Calm Calm - N/A   Clear
8:13 PM 26.6 °F 22.6 °F 24.8 °F 93% 29.33 in 10.0 mi SSW 3.5 mph - N/A   Clear
8:33 PM 26.6 °F 22.6 °F 24.8 °F 93% 29.33 in 10.0 mi SSW 3.5 mph - N/A   Clear
8:53 PM 26.6 °F 22.6 °F 24.8 °F 93% 29.33 in 10.0 mi WSW 3.5 mph - N/A   Clear
9:13 PM 26.6 °F 20.0 °F 24.8 °F 93% 29.33 in 10.0 mi West 5.8 mph - N/A   Scattered Clouds
9:33 PM 28.4 °F 19.7 °F 24.8 °F 86% 29.34 in 10.0 mi West 9.2 mph - N/A   Overcast
9:53 PM 28.4 °F 20.4 °F 26.6 °F 93% 29.34 in 10.0 mi West 8.1 mph - N/A   Overcast
10:13 PM 28.4 °F 20.4 °F 24.8 °F 86% 29.35 in 10.0 mi West 8.1 mph - N/A   Overcast
10:33 PM 30.2 °F 22.6 °F 24.8 °F 80% 29.34 in 10.0 mi West 8.1 mph - N/A   Overcast
10:53 PM 30.2 °F 24.3 °F 24.8 °F 80% 29.35 in 10.0 mi West 5.8 mph - N/A   Overcast
11:13 PM 28.4 °F 24.6 °F 24.8 °F 86% 29.35 in 10.0 mi West 3.5 mph - N/A   Overcast
11:33 PM 30.2 °F 24.3 °F 24.8 °F 80% 29.35 in 10.0 mi WNW 5.8 mph - N/A   Overcast
11:53 PM 30.2 °F 24.3 °F 24.8 °F 80% 29.36 in 10.0 mi WNW 5.8 mph - N/A   Overcast